This is the latest recevied weather packets stored in our database for station/object YO6LRV-3. If no packets are shown the sender has not sent any weather packets the latest 10 day(s).
| Time | Temp. | Humidity | Pressure | Rain* | Wind** | Luminosity | Snow |
|---|---|---|---|---|---|---|---|
| 1787789519 | 18.33° C | 90% | 1018.6 hPa | - | - | - | - |
| 1787788619 | 18.33° C | 89% | 1018.3 hPa | - | - | - | - |
| 1787787726 | 18.89° C | 87% | 1018.3 hPa | - | - | - | - |
| 1787786819 | 18.33° C | 90% | 1018.4 hPa | - | - | - | - |
| 1787785918 | 18.89° C | 86% | 1018.6 hPa | - | - | - | - |
| 1787785025 | 18.89° C | 87% | 1018.5 hPa | - | - | - | - |
| 1787784125 | 18.89° C | 80% | 1018.4 hPa | - | - | - | - |
| 1787783225 | 18.89° C | 79% | 1018.3 hPa | - | - | - | - |
| 1787782318 | 19.44° C | 80% | 1018.5 hPa | - | - | - | - |
| 1787781425 | 19.44° C | 80% | 1018.6 hPa | - | - | - | - |
| 1787779624 | 19.44° C | 80% | 1018.7 hPa | - | - | - | - |
| 1787778717 | 19.44° C | 81% | 1018.5 hPa | - | - | - | - |
| 1787777824 | 19.44° C | 82% | 1018.6 hPa | - | - | - | - |
| 1787776917 | 19.44° C | 84% | 1018.7 hPa | - | - | - | - |
| 1787776017 | 19.44° C | 89% | 1018.6 hPa | - | - | - | - |
| 1787775117 | 19.44° C | 95% | 1018.5 hPa | - | - | - | - |
| 1787774217 | 18.89° C | 96% | 1018.4 hPa | - | - | - | - |
| 1787773323 | 19.44° C | 95% | 1018.2 hPa | - | - | - | - |
| 1787772416 | 19.44° C | 89% | 1018 hPa | - | - | - | - |
| 1787771519 | 19.44° C | 85% | 1018.1 hPa | - | - | - | - |
| 1787770619 | 20° C | 83% | 1017.8 hPa | - | - | - | - |
| 1787769718 | 20° C | 82% | 1018 hPa | - | - | - | - |
| 1787768818 | 20.56° C | 78% | 1018 hPa | - | - | - | - |
| 1787767918 | 21.11° C | 76% | 1018 hPa | - | - | - | - |
| 1787767025 | 21.11° C | 76% | 1017.9 hPa | - | - | - | - |
* Rain since midnight (hover to see other rain measurements)
** Current wind speed in m/s (hover to see current wind gust speed)